This demonstration page uses our WeatherBlox Daily Observations layout. Learn more.

39.29038, -76.61219

Hourly Observations for November 19, 2019

Temp ( °F °C ) Dew Point ( °F °C ) Humidity (%) Winds ( mph kmh ) Pressure ( in mb ) Visibility ( mi km ) Precip ( " mm )
12:54 am 00:54 undefined 43 6.1 40 4.4 89 89 undefined N/A 29.76 1008 N/A 0.02 0.508
1:54 am 01:54 undefined 42 5.6 40 4.4 92 92 undefined N/A 29.75 1008 N/A 0 0
2:54 am 02:54 undefined 42 5.6 40 4.4 92 92 undefined N/A 29.77 1008 N/A 0 0
3:54 am 03:54 undefined 43 6.1 40 4.4 89 89 undefined N/A 29.75 1008 N/A 0 0
4:54 am 04:54 undefined 43 6.1 40 4.4 89 89 undefined N/A 29.77 1008 N/A 0 0
5:54 am 05:54 undefined 42 5.6 40 4.4 92 92 undefined N/A 29.79 1009 N/A 0 0
6:54 am 06:54 undefined 42 5.6 40 4.4 92 92 undefined N/A 29.8 1009 N/A 0 0
7:54 am 07:54 undefined 44 6.7 40 4.4 85 85 undefined N/A 29.82 1010 N/A 0 0
8:54 am 08:54 undefined 46 7.8 39 3.9 77 77 undefined N/A 29.83 1010 N/A 0 0
9:54 am 09:54 undefined 50 10 40 4.4 68 68 undefined N/A 29.84 1011 N/A 0 0
10:54 am 10:54 undefined 52 11.1 38 3.3 59 59 undefined N/A 29.83 1010 N/A 0 0
11:54 am 11:54 undefined 53 11.7 35 1.7 51 51 undefined N/A 29.81 1010 N/A 0 0
12:54 pm 12:54 undefined 56 13.3 36 2.2 47 47 undefined N/A 29.8 1009 N/A 0 0
1:54 pm 13:54 undefined 57 13.9 35 1.7 44 44 undefined N/A 29.79 1009 N/A 0 0
2:54 pm 14:54 undefined 54 12.2 39 3.9 57 57 undefined N/A 29.8 1009 N/A 0 0
3:54 pm 15:54 undefined 52 11.1 40 4.4 64 64 undefined N/A 29.81 1010 N/A 0 0
4:54 pm 16:54 undefined 51 10.6 41 5 69 69 undefined N/A 29.82 1010 N/A 0 0
5:54 pm 17:54 undefined 50 10 41 5 71 71 undefined N/A 29.84 1011 N/A 0 0
6:54 pm 18:54 undefined 50 10 42 5.6 74 74 undefined N/A 29.85 1011 N/A 0 0
7:54 pm 19:54 undefined 49 9.4 42 5.6 77 77 undefined N/A 29.86 1011 N/A 0 0
8:54 pm 20:54 undefined 48 8.9 41 5 77 77 undefined N/A 29.87 1012 N/A 0 0
9:54 pm 21:54 undefined 49 9.4 42 5.6 77 77 undefined N/A 29.87 1012 N/A 0 0
10:54 pm 22:54 undefined 49 9.4 42 5.6 77 77 undefined N/A 29.87 1012 N/A 0 0
11:54 pm 23:54 undefined 49 9.4 42 5.6 77 77 undefined N/A 29.87 1012 N/A 0 0

Powered by AerisWeather